User: anonymous   Login
Location: Tyler Bend Campground
(35.9875°N, 92.7606°W)
Time: 17:31:12
(UTC-05:00)
Language:

Iridium 39 - Orbit

View from above orbital plane
View from above orbital plane
View from above satellite
View from above satellite

Ground track
Ground track

The orbit data is extracted from the following two-line orbital elements,

1 25042U 97069D   16269.55517909  .00000162  00000-0  39647-4 0  9991
2 25042  86.3921 132.1378 0020907 110.3815 249.9635 14.46087389988470
Epoch (UTC): 25 September 2016 13:19:27
Eccentricity: 0.0020907
inclination: 86.3921°
perigee height: 723 km
apogee height: 753 km
right ascension of ascending node: 132.1378°
argument of perigee: 110.3815°
revolutions per day: 14.46087389
mean anomaly at epoch: 249.9635°
orbit number at epoch: 98847

The dashed part of the orbit path shows where the satellite is in the earth's shadow,  

DLR